Location: *
(18.5200°S, 46.4500°E)
Time: 00:51:48
(UTC+00:00)

GPS 2-17 Rocket1 - Pass Details

Date: 19 July 2019
Orbit: 571 x 659 km, 20.3° (Epoch: 20 August)

Event Time Altitude Azimuth Distance (km) Brightness Sun altitude
Rises 15:02:43 0° 261° (W) 2,962 7.8 -7.0°
Reaches altitude 10° 15:05:07 10° 262° (W) 2,041 6.9 -7.5°
Maximum altitude 15:09:56 83° 349° (NNW) 642 3.2 -8.6°
Drops below altitude 10° 15:14:37 10° 77° (ENE) 1,984 5.1 -9.6°
Enters shadow 15:14:59 - 77° (ENE) 2,126 5.3 -9.7°
